Terminal Aerodrome Forecast
Issued by NWS Binghamton, NY

Home | Current Version | Previous Version | Text Only | Print | Product List | Glossary On
Versions: 1 2 3 4 5 6 7 8 9 10 11 12 13 14 15 16 17 18 19 20 21 22 23 24 25 26 27 28
000
FTUS41 KBGM 222300 RRA
TAFBGM
TAF
KBGM 222341Z 2300/2324 34012KT P6SM OVC008
      TEMPO 2300/2304 3SM -SHRA BR SCT008 OVC012
     FM231500 34012G20KT P6SM OVC012=

USA.gov is the U.S. government's official web portal to all federal, state and local government web resources and services.